TimeEST,TemperatureF,Dew PointF,Humidity,Sea Level PressureIn,VisibilityMPH,Wind Direction,Wind SpeedMPH,Gust SpeedMPH,PrecipitationIn,Events,Conditions,WindDirDegrees,DateUTC
12:05 AM,32.0,21.2,64,30.43,10.0,WNW,5.8,-,N/A,,Clear,300,2013-11-13 05:05:00
12:25 AM,32.0,21.2,64,30.44,10.0,WNW,4.6,-,N/A,,Clear,300,2013-11-13 05:25:00
12:45 AM,30.2,21.2,69,30.43,10.0,Calm,Calm,-,N/A,,Clear,0,2013-11-13 05:45:00
1:05 AM,30.2,21.2,69,30.43,10.0,WNW,5.8,-,N/A,,Clear,290,2013-11-13 06:05:00
1:25 AM,30.2,21.2,69,30.43,10.0,WNW,9.2,-,N/A,,Clear,300,2013-11-13 06:25:00
1:45 AM,30.2,21.2,69,30.43,10.0,WNW,8.1,-,N/A,,Clear,300,2013-11-13 06:45:00
2:05 AM,30.2,21.2,69,30.43,10.0,WNW,8.1,-,N/A,,Clear,300,2013-11-13 07:05:00
2:25 AM,30.2,21.2,69,30.43,10.0,WNW,10.4,-,N/A,,Clear,290,2013-11-13 07:25:00
2:45 AM,30.2,21.2,69,30.43,10.0,WNW,5.8,-,N/A,,Clear,300,2013-11-13 07:45:00
3:05 AM,30.2,21.2,69,30.43,10.0,West,6.9,-,N/A,,Mostly Cloudy,280,2013-11-13 08:05:00
3:25 AM,30.2,21.2,69,30.43,10.0,WNW,6.9,-,N/A,,Scattered Clouds,300,2013-11-13 08:25:00
3:45 AM,30.2,21.2,69,30.43,10.0,WNW,6.9,-,N/A,,Clear,290,2013-11-13 08:45:00
4:05 AM,30.2,21.2,69,30.44,10.0,WNW,6.9,-,N/A,,Clear,290,2013-11-13 09:05:00
4:25 AM,30.2,21.2,69,30.44,10.0,West,8.1,-,N/A,,Mostly Cloudy,280,2013-11-13 09:25:00
4:45 AM,30.2,21.2,69,30.44,10.0,WNW,6.9,-,N/A,,Scattered Clouds,300,2013-11-13 09:45:00
5:05 AM,28.4,21.2,74,30.44,10.0,WNW,5.8,-,N/A,,Clear,300,2013-11-13 10:05:00
5:25 AM,30.2,21.2,69,30.45,10.0,WNW,6.9,-,N/A,,Clear,300,2013-11-13 10:25:00
5:40 AM,30.2,21.2,69,30.45,10.0,WNW,6.9,-,N/A,,Clear,300,2013-11-13 10:40:00
6:52 AM,30.2,21.2,69,30.48,10.0,NW,6.9,-,N/A,,Mostly Cloudy,320,2013-11-13 11:52:00
7:50 AM,33.8,23.0,65,30.49,10.0,SE,9.2,-,N/A,,Scattered Clouds,134,2013-11-13 12:50:00
8:45 AM,35.6,21.2,56,30.50,10.0,NNW,15.0,18.4,N/A,,Clear,330,2013-11-13 13:45:00
9:52 AM,37.4,21.2,52,30.50,10.0,NNW,15.0,20.7,N/A,,Clear,330,2013-11-13 14:52:00
10:50 AM,41.0,21.2,45,30.50,10.0,North,10.4,23.0,N/A,,Scattered Clouds,360,2013-11-13 15:50:00
11:50 AM,39.2,23.0,52,30.48,10.0,NW,11.5,20.7,N/A,,Mostly Cloudy,310,2013-11-13 16:50:00
12:46 PM,39.2,23.0,52,30.46,10.0,NNW,10.4,23.0,N/A,,Mostly Cloudy,330,2013-11-13 17:46:00
1:45 PM,42.8,23.0,46,30.45,10.0,NNW,11.5,20.7,N/A,,Scattered Clouds,330,2013-11-13 18:45:00
2:45 PM,42.8,21.2,42,30.44,10.0,NW,15.0,-,N/A,,Partly Cloudy,320,2013-11-13 19:45:00
4:50 PM,39.2,19.4,45,30.44,10.0,Variable,3.5,-,N/A,,Clear,0,2013-11-13 21:50:00
5:45 PM,35.6,21.2,56,30.45,10.0,Calm,Calm,-,N/A,,Clear,0,2013-11-13 22:45:00
6:50 PM,35.6,19.4,52,30.45,10.0,West,6.9,-,N/A,,Clear,260,2013-11-13 23:50:00
7:45 PM,32.0,21.2,64,30.45,10.0,West,6.9,-,N/A,,Clear,260,2013-11-14 00:45:00
8:05 PM,33.8,23.0,65,30.45,10.0,WSW,8.1,-,N/A,,Clear,250,2013-11-14 01:05:00
8:25 PM,32.0,23.0,69,30.45,10.0,West,5.8,-,N/A,,Clear,260,2013-11-14 01:25:00
8:45 PM,32.0,23.0,69,30.45,10.0,WSW,8.1,-,N/A,,Clear,250,2013-11-14 01:45:00
9:05 PM,32.0,23.0,69,30.45,10.0,SW,5.8,-,N/A,,Clear,220,2013-11-14 02:05:00
9:25 PM,32.0,23.0,69,30.44,10.0,SSW,6.9,-,N/A,,Clear,200,2013-11-14 02:25:00
9:45 PM,32.0,23.0,69,30.44,10.0,SSW,5.8,-,N/A,,Clear,210,2013-11-14 02:45:00
10:05 PM,32.0,23.0,69,30.43,10.0,WSW,10.4,-,N/A,,Clear,250,2013-11-14 03:05:00
10:25 PM,32.0,23.0,69,30.43,10.0,SSW,4.6,-,N/A,,Clear,200,2013-11-14 03:25:00
10:45 PM,32.0,23.0,69,30.42,10.0,Calm,Calm,-,N/A,,Clear,0,2013-11-14 03:45:00
11:05 PM,30.2,23.0,75,30.42,10.0,SSW,6.9,-,N/A,,Clear,210,2013-11-14 04:05:00
11:25 PM,32.0,23.0,69,30.41,10.0,SW,5.8,-,N/A,,Clear,220,2013-11-14 04:25:00
11:45 PM,32.0,23.0,69,30.40,10.0,South,4.6,-,N/A,,Clear,190,2013-11-14 04:45:00